Find Starlink 1279

NORAD ID: 45360 Int'l Des: 2020-019 Owner: SPXS Country: US Constellation: starlink decayed
LEOCIRCULAR

Re-entered — Sep 3, 2026

3D地球を読み込み中...

About Starlink 1279

Starlink 1279 (NORAD 45360) is a starlink constellation satellite (v1.0) launched Mar 18, 2020 by SPXS of US. It re-entered the atmosphere on Sep 3, 2026. with a mass of 260.00 kg.

高度履歴

Loading altitude history...

軌道要素

1 45360U 20019A 26246.34721523 .07344221 12388-4 50268-3 0 9990
2 45360 53.0136 287.9001 0004156 279.0169 81.0407 16.40503973358740
Epoch: Sep 3, 2026 • Age: 433 hours

現在のステータス

Position data unavailable
打ち上げ日 Mar 18, 2020
運用期間 6.5 years
落下予定日 Sep 3, 2026
タイプ internet

技術仕様

分類 Payload
質量 260.00 kg
乾燥質量 248.00 kg
長さ 0.20 m
スパン 9.00 m
形状 ? Box + pan
製造者 SPXS
バスタイプ Starlink
フェーズステータス Unknown Transfer Status
所有者/国 SPXS/US

Most Searched